CO-66
1 32791U 08021J 13198.85415895 .00000831 00000-0 10405-3 0 6565
2 32791 097.7506 255.9445 0015153 198.5457 273.6121 14.84760207282425
RS-30
1 32953U 08025A 13199.69223805 .00000010 00000-0 00000 0 0 402
2 32953 082.4995 048.5988 0018480 160.7834 199.3945 12.43035251233827
METEOR-M
1 35865U 09049A 13199.75110576 -.00000024 00000-0 84318-5 0 6324
2 35865 098.5996 251.3965 0002677 004.5290 355.5908 14.21889863198955
RS-38
1 35869U 09049E 13199.77895220 .00000023 00000-0 29656-4 0 5898
2 35869 098.5932 251.3290 0004811 353.7378 006.3736 14.22137146198982
JUGNU
1 37839U 11058B 13199.80860723 .00000333 00000-0 35889-4 0 4230
2 37839 019.9620 115.1804 0018864 271.6946 125.5357 14.12167419 91375
SRMSAT
1 37841U 11058D 13199.21851670 .00000323 00000-0 32537-4 0 4257
2 37841 019.9721 131.4257 0011803 217.1402 261.5519 14.10235709 91154
RAX-2
1 37853U 11061D 13198.65179541 .00003072 00000-0 23731-3 0 5431
2 37853 101.7097 066.4117 0233956 300.1805 136.4253 14.83915622 92964
AUBIESAT
1 37854U 11061E 13198.19713903 .00002355 00000-0 18061-3 0 5373
2 37854 101.7117 066.6763 0233998 300.1132 177.5853 14.84661774 92910
HRBE
1 37855U 11061F 13199.15753432 .00002220 00000-0 17203-3 0 5415
2 37855 101.7131 067.8221 0234851 297.7826 209.2578 14.84312880 93042
RS-39
1 38051U 11062C 13199.15845027 .00015755 00000-0 48804-3 0 6135
2 38051 051.6343 060.9886 0011255 024.0706 069.9369 15.33552282 82537
E-STAR
1 38079U 12006C 13199.76896238 .00054618 00000-0 11109-2 0 2898
2 38079 069.4757 106.7644 0597720 095.2238 347.7678 14.49672418 74317
GOLIAT
1 38085U 12006J 13199.73942021 .00040392 30839-5 84197-3 0 2221
2 38085 069.4714 109.2601 0608261 096.4947 270.5791 14.47371818 74240
HORYU-2
1 38340U 12025D 13198.84949729 .00001323 00000-0 22367-3 0 5495
2 38340 098.2166 146.7713 0012812 150.7667 209.4227 14.71030123 62621
RS-40
1 38736U 12041D 13198.82298282 .00000010 00000-0 00000 0 0 3217
2 38736 082.4801 136.0284 0019916 261.0959 098.7868 12.42869158 44059
PROITERES
1 38756U 12047B 13199.20019030 .00000627 00000-0 10284-3 0 9466
2 38756 098.2514 276.8129 0012965 014.0741 346.0832 14.74272195 45967
RAIKO
1 38852U 98067CN 13199.61956003 .00425996 85023-4 99214-3 0 2830
2 38852 051.6319 283.7203 0006347 007.0663 353.0433 15.96458130 44865
FITSAT 1
1 38853U 98067CP 13184.86912902 .06638326 12312-4 50483-3 0 3153
2 38853 051.6252 351.6077 0011722 245.9321 114.2104 16.39337660 42708
TechEdSat
1 38854U 98067CQ 13124.93253577 .11592855 12481-4 94246-3 0 2908
2 38854 051.6449 297.0261 0010505 310.8629 049.0629 16.38844728 33294
F 1
1 38855U 98067CR 13129.77714356 .27424026 12535-4 30797-3 0 2871
2 38855 051.5085 272.4145 0008326 194.2908 166.5495 16.49710473 33949
WeWish
1 38856U 98067CS 13069.98095549 .16701328 12537-4 10063-2 0 2487
2 38856 051.6166 215.0521 0008325 316.0438 044.8765 16.41348316 24586
OSSI-1
1 39131U 13015B 13188.41684431 .01502874 74059-5 44818-3 0 85
2 39131 064.8841 114.8425 0051126 026.6892 350.0589 16.22925119 12374
BEESAT-3
1 39134U 13015E 13199.81702903 .00004134 00000-0 33891-3 0 2276
2 39134 064.8774 109.2265 0009944 203.3078 222.6691 15.00557192 13571
BEESAT-2
1 39136U 13015G 13198.23592964 .00003805 00000-0 31349-3 0 2064
2 39136 064.8783 114.1997 0010072 203.5120 318.0694 15.00495388 13339
